TimeMDT,TemperatureF,Dew PointF,Humidity,Sea Level PressureIn,VisibilityMPH,Wind Direction,Wind SpeedMPH,Gust SpeedMPH,PrecipitationIn,Events,Conditions,WindDirDegrees,DateUTC
12:53 AM,70.0,46.9,44,29.75,10.0,SE,10.4,-,N/A,,Clear,130,2013-09-02 06:53:00
1:53 AM,70.0,46.9,44,29.75,10.0,SE,10.4,-,N/A,,Clear,140,2013-09-02 07:53:00
2:53 AM,73.0,48.0,41,29.75,10.0,Calm,Calm,-,N/A,,Clear,0,2013-09-02 08:53:00
3:53 AM,73.0,48.9,42,29.76,10.0,SSW,8.1,-,N/A,,Overcast,200,2013-09-02 09:53:00
4:53 AM,75.0,50.0,41,29.77,10.0,SSW,6.9,-,N/A,,Partly Cloudy,210,2013-09-02 10:53:00
5:53 AM,72.0,57.0,59,29.80,10.0,SE,21.9,27.6,0.00,Rain,Light Rain,130,2013-09-02 11:53:00
6:53 AM,68.0,60.1,76,29.81,10.0,SSE,15.0,-,N/A,Rain,Light Rain,150,2013-09-02 12:53:00
7:53 AM,69.1,59.0,70,29.82,10.0,South,9.2,-,N/A,,Overcast,170,2013-09-02 13:53:00
8:53 AM,73.0,60.1,64,29.83,10.0,South,10.4,-,N/A,,Mostly Cloudy,180,2013-09-02 14:53:00
9:53 AM,73.9,57.9,57,29.86,10.0,South,13.8,-,N/A,,Partly Cloudy,180,2013-09-02 15:53:00
10:53 AM,78.1,55.9,46,29.85,10.0,SE,4.6,-,N/A,,Scattered Clouds,140,2013-09-02 16:53:00
11:53 AM,82.0,51.1,34,29.86,10.0,NE,4.6,-,N/A,,Overcast,50,2013-09-02 17:53:00
12:53 PM,82.9,61.0,47,29.86,10.0,NNE,6.9,-,N/A,,Clear,20,2013-09-02 18:53:00
1:53 PM,84.9,57.0,38,29.85,10.0,ENE,6.9,-,N/A,,Clear,60,2013-09-02 19:53:00
2:53 PM,87.1,55.9,35,29.83,10.0,ENE,10.4,-,N/A,,Clear,70,2013-09-02 20:53:00
3:53 PM,84.0,54.0,35,29.83,10.0,ENE,8.1,-,N/A,,Clear,60,2013-09-02 21:53:00
4:53 PM,81.0,59.0,47,29.85,10.0,Calm,Calm,-,N/A,Rain,Light Rain,0,2013-09-02 22:53:00
5:53 PM,79.0,57.9,48,29.82,10.0,Calm,Calm,-,N/A,,Scattered Clouds,0,2013-09-02 23:53:00
6:53 PM,79.0,59.0,50,29.81,10.0,East,11.5,-,N/A,,Mostly Cloudy,80,2013-09-03 00:53:00
7:53 PM,75.9,60.1,58,29.84,10.0,NE,5.8,-,N/A,,Mostly Cloudy,50,2013-09-03 01:53:00
8:53 PM,73.9,61.0,64,29.86,10.0,Calm,Calm,-,N/A,,Scattered Clouds,0,2013-09-03 02:53:00
9:26 PM,75.2,57.2,53,30.09,10.0,SSW,18.4,24.2,N/A,Thunderstorm,Overcast,200,2013-09-03 03:26:00
9:51 PM,69.8,60.8,73,30.10,10.0,South,17.3,26.5,N/A,Rain-Thunderstorm,Light Rain,180,2013-09-03 03:51:00
9:53 PM,69.1,61.0,75,29.94,10.0,South,16.1,26.5,N/A,Rain-Thunderstorm,Light Rain,180,2013-09-03 03:53:00
10:16 PM,66.2,62.6,88,30.10,10.0,SE,6.9,-,N/A,Rain,Light Rain,140,2013-09-03 04:16:00
10:53 PM,66.9,61.0,81,29.93,10.0,SE,8.1,-,N/A,Rain,Light Rain,130,2013-09-03 04:53:00
11:53 PM,68.0,59.0,73,29.89,10.0,ESE,8.1,-,N/A,,Clear,110,2013-09-03 05:53:00